Location: Ellerau
(53.7543°N, 9.9296°E)
Time: 20:02:41
(UTC+00:00)

Daily predictions for brighter satellites

Satellite Brightness Start Highest point End
(mag) Time Altitude Azimuth Time Altitude Azimuth Time Altitude Azimuth
NOAA 12 4.2 16:22:49 10° SE 16:27:57 59° ENE 16:33:09 10° N
Cosmos 2082 4.3 16:23:53 10° S 16:29:02 39° ESE 16:34:15 10° NE
Cosmos 724 4.4 16:23:26 10° SW 16:29:22 82° SE 16:35:15 10° NE
COSMO-SKYMED 1 4.0 16:26:41 10° NE 16:29:47 19° E 16:32:52 10° SE
Cosmos 44 3.5 16:25:36 10° SSW 16:29:55 45° SE 16:34:07 10° NE
Cosmos 1603 4.1 16:24:53 10° NNW 16:30:18 42° NE 16:35:38 10° ESE
Starlink Q 3.2 16:27:12 10° W 16:30:30 73° S 16:33:46 10° ESE
Starlink AR 2.9 16:28:19 10° W 16:31:03 64° SSW 16:33:48 10° ESE
Cosmos 2219 3.2 16:25:41 10° SSW 16:31:19 85° ESE 16:37:02 10° NNE
Cosmos 2341 Rocket 4.2 16:25:46 10° S 16:31:57 58° E 16:38:09 10° NNE
Cosmos 1758 Rocket 3.7 16:27:46 10° S 16:31:58 53° E 16:36:12 10° NNE
Cosmos 2297 Rocket 2.3 16:26:22 10° SSW 16:31:58 66° ESE 16:37:36 10° NE
Cosmos 1626 Rocket 4.1 16:28:12 10° SSW 16:32:28 61° WNW 16:36:47 10° N
Starlink P 3.2 16:29:34 10° W 16:32:51 72° S 16:36:09 10° ESE
COBE Rocket 4.1 16:27:57 10° NNE 16:33:10 84° ESE 16:38:22 10° SSW
Starlink U 3.2 16:31:52 10° W 16:35:10 71° S 16:38:27 10° ESE
Cosmos 2263 Rocket 4.0 16:34:47 10° ESE 16:36:01 11° E 16:37:16 10° E
Starlink B 3.3 16:34:11 10° W 16:37:29 71° S 16:40:47 10° ESE
SJ 16-02 3.9 16:35:34 10° WNW 16:37:33 13° NW 16:39:34 10° N
Cosmos 2251 Rocket 3.6 16:35:35 10° NNW 16:40:56 85° ENE 16:46:17 10° SSE
USA 267 3.9 16:35:25 10° ENE 16:41:34 42° SE 16:47:42 10° SSW
Cosmos 1626 3.4 16:40:39 10° SW 16:44:12 43° WNW 16:47:47 10° N
ISS -3.0 16:41:27 10° WSW 16:44:42 46° SSE 16:47:58 10° E
Cosmos 1125 Rocket 4.3 16:40:23 10° SW 16:45:27 50° NW 16:50:35 10° NNE
Cosmos 2227 Rocket 2.2 16:40:07 10° SSW 16:45:45 74° ESE 16:51:25 10° NE
H-2A R/B 3.2 16:42:02 10° S 16:45:54 68° WSW 16:49:50 10° NNW
Meteor 2-17 Rocket 4.5 16:41:38 10° S 16:47:47 87° E 16:53:55 10° NNE
Envisat 3.0 16:43:41 10° SSE 16:48:45 78° ENE 16:53:52 10° NNW
Cosmos 1939 Rocket 3.9 16:46:20 10° ESE 16:49:35 24° ENE 16:52:53 10° N
Cosmos 2221 3.3 16:46:22 10° N 16:50:07 28° ENE 16:53:52 10° SE
Iridium 96 3.5 16:47:56 10° N 16:50:24 68° E 16:52:58 10° S
Cosmos 2218 Rocket 4.2 16:44:54 10° SSE 16:51:02 51° E 16:57:13 10° NNE
ATLAS 5 CENTAUR R/B 3.0 16:48:25 10° NW 16:51:48 53° NNE 17:02:24 10° ESE
Cosmos 1825 Rocket 3.5 16:48:53 10° S 16:53:12 75° E 16:57:32 10° NNE
Meteor 1-27 4.4 16:48:16 10° N 16:53:38 46° ENE 16:59:00 10° SE
Starlink D 3.4 16:51:55 10° W 16:55:13 63° SSW 16:58:31 10° ESE
H-2A R/B 3.6 16:52:41 10° E 16:55:42 16° NE 16:58:45 10° NNE
SMAP 3.7 16:51:43 10° S 16:56:18 61° WSW 17:00:57 10° NNW
Cosmos-2242 3.3 16:52:21 10° NNW 16:56:41 71° W 17:00:55 10° S
USA 32 4.0 16:52:15 10° S 16:57:29 85° E 17:02:46 10° N
Starlink S 3.4 16:54:21 10° W 16:57:39 62° SSW 17:00:57 10° ESE
Cosmos 1943 3.4 16:52:20 10° NNW 16:57:49 49° NE 17:03:18 10° ESE
Starlink C 3.4 16:56:43 10° W 17:00:01 61° SSW 17:03:19 10° ESE
Starlink E 3.5 16:59:08 10° W 17:02:26 60° SSW 17:05:43 10° ESE
Cosmos 407 Rocket 3.8 16:59:08 10° NNW 17:04:15 45° NE 17:09:16 10° SE
USA 102 4.0 17:02:04 10° SSE 17:04:49 14° SSE 17:05:24 14° SSE
Starlink J 3.5 17:01:36 10° W 17:04:54 59° SSW 17:08:11 10° ESE
Cosmos 1190 Rocket 4.4 17:01:59 10° NNW 17:07:04 43° NE 17:12:07 10° SE
Starlink V 3.5 17:04:01 10° W 17:07:18 58° SSW 17:10:32 10° ESE
Cosmos 1689 Rocket 4.2 17:05:37 10° N 17:08:10 26° WNW 17:10:43 10° SW
Starlink H 3.6 17:06:28 10° W 17:09:45 57° SSW 17:12:53 11° ESE
Starlink F 3.6 17:08:56 10° W 17:12:13 56° SSW 17:15:16 12° ESE
CSL-04 Debris 4.3 17:07:08 10° SE 17:12:22 54° ENE 17:17:41 10° N
BREEZE-M DEB (TANK) 4.1 17:12:48 10° SSW 17:14:30 18° SSE 17:15:43 14° ESE
Starlink G 3.6 17:11:22 10° W 17:14:39 54° SSW 17:17:38 12° ESE
Cosmos 2366 rocket 4.0 17:08:46 10° S 17:14:58 69° E 17:21:17 10° NNE
ADEOS Rocket 4.2 17:10:09 10° NNE 17:15:54 27° E 17:22:00 10° SE
Starlink L 3.7 17:13:49 10° W 17:17:05 53° SSW 17:19:58 13° ESE
ERBS 2.6 17:14:09 10° W 17:17:25 55° NNW 17:19:26 21° ENE
SKYMED 2 3.8 17:14:00 10° NNE 17:18:14 48° E 17:22:26 10° S
Cosmos 1328 3.7 17:15:02 10° S 17:19:03 78° E 17:23:05 10° NNE
USA 234 3.8 17:12:41 10° SE 17:19:07 60° SW 17:25:36 10° WNW
Starlink A 3.7 17:16:17 10° W 17:19:34 52° SSW 17:22:21 13° SE
FengYun 1-2 T 4.4 17:16:09 10° SSE 17:21:49 85° WSW 17:27:32 10° NNW
Starlink R 3.7 17:18:42 10° W 17:21:58 51° SSW 17:24:41 14° SE
ATLAS 5 CENTAUR R/B 3.2 17:18:34 10° WNW 17:22:47 29° N 17:26:19 15° NE
Starlink K 3.8 17:21:12 10° W 17:24:28 50° SSW 17:27:05 15° SE
Cosmos 44 Rocket 4.0 17:21:00 10° S 17:25:16 33° ESE 17:27:39 21° ENE
Starlink M 3.8 17:23:36 10° W 17:26:52 49° SSW 17:29:23 15° SE
Cosmos 1455 3.8 17:25:01 10° NNW 17:28:34 38° W 17:32:04 10° SSW
CSL-04 Rocket 3.7 17:23:23 10° SSE 17:28:53 70° ENE 17:34:26 10° NNW
Okean-O 3.4 17:25:51 10° S 17:30:13 56° W 17:34:36 10° NNW
Cosmos 614 Rocket 3.9 17:26:59 10° NNW 17:32:14 74° ENE 17:37:27 10° SSE
Ariane Rocket 3.5 17:27:37 10° SE 17:32:17 38° ENE 17:36:59 10° N
Cosmos 2082 Rocket 4.1 17:29:35 10° NNW 17:32:35 14° N 17:34:56 12° NE
YAOGAN 1 2.5 17:30:34 10° SSE 17:34:53 78° ENE 17:39:14 10° NNW
CZ-4 R/B 1.5 17:31:07 10° SSE 17:35:16 85° WSW 17:39:31 10° NNW
Cosmos 1703 3.5 17:33:47 10° SSW 17:37:44 71° WNW 17:41:44 10° N
USA 238 DEB 4.4 17:35:19 10° S 17:40:59 30° ESE 17:43:45 23° ENE
USA 238 4.5 17:35:26 10° S 17:41:06 30° ESE 17:43:48 23° E
Cosmos 1727 Rocket 4.2 17:35:46 10° NNW 17:41:58 77° W 17:48:07 10° S
ATLAS CENTAUR R/B 4.2 17:40:04 10° WNW 17:42:52 18° WSW 17:45:32 10° SSW
Cosmos 1400 Rocket 4.3 17:41:42 10° N 17:43:50 21° NE 17:43:50 21° NE
Cosmos 2084 3.4 17:40:59 10° NW 17:45:25 67° NE 17:47:41 27° ESE
Starlink AS 4.2 17:43:47 10° W 17:46:28 33° SSW 17:47:53 20° SSE
SL-8 Rocket 4.5 17:40:23 10° SSW 17:46:38 65° WNW 17:52:51 10° N
Starlink BA 4.2 17:44:00 10° W 17:46:41 33° SSW 17:48:06 20° SSE
Starlink AU 4.2 17:44:14 10° W 17:46:55 32° SSW 17:48:19 21° SSE
Starlink AT 4.2 17:44:28 10° W 17:47:08 32° SSW 17:48:32 21° SSE
Starlink BB 4.2 17:44:41 10° W 17:47:22 32° SSW 17:48:45 21° SSE
Starlink BC 4.2 17:44:55 10° W 17:47:36 32° SSW 17:48:58 21° SSE
Starlink BK 4.2 17:45:08 10° W 17:47:48 32° SSW 17:49:11 21° SSE
Starlink AY 4.2 17:45:21 10° W 17:48:02 32° SSW 17:49:24 21° SSE
Meteor 2-2 Rocket 4.3 17:42:06 10° NNW 17:48:12 80° ENE 17:54:12 10° SSE
Starlink AW 4.2 17:45:36 10° W 17:48:16 32° SSW 17:49:38 21° SSE
Starlink BJ 4.2 17:45:48 10° W 17:48:28 32° SSW 17:49:49 21° SSE
Starlink AV 4.2 17:46:02 10° W 17:48:43 32° SSW 17:50:03 21° SSE
Starlink BD 4.2 17:46:16 10° W 17:48:56 32° SSW 17:50:16 21° SSE
Starlink BE 4.3 17:46:27 10° W 17:49:09 32° SSW 17:50:30 21° SSE
Starlink BM 4.3 17:46:43 10° W 17:49:23 32° SSW 17:50:42 21° SSE
Starlink AX 4.3 17:46:56 10° W 17:49:36 31° SSW 17:50:54 21° SSE
Starlink BH 4.3 17:47:09 10° W 17:49:49 31° SSW 17:51:07 21° SSE
Starlink AZ 4.3 17:47:23 10° W 17:50:03 31° SSW 17:51:21 21° SSE
Starlink BG 4.3 17:47:36 10° W 17:50:16 31° SSW 17:51:34 21° SSE
Starlink BF 4.3 17:47:50 10° W 17:50:30 31° SSW 17:51:46 21° SSE
Starlink BL 4.3 17:48:02 10° W 17:50:43 31° SSW 17:52:01 21° SSE
Starlink AH 4.3 17:48:17 10° W 17:50:56 31° SSW 17:52:12 21° SSE
Starlink AC 4.3 17:48:31 10° W 17:51:10 31° SSW 17:52:25 21° SSE
Starlink X 4.3 17:48:45 10° W 17:51:23 31° SSW 17:52:38 21° SSE
Starlink AE 4.3 17:48:55 10° W 17:51:36 31° SSW 17:52:54 21° SSE
Cosmos 1023 Rocket 4.4 17:46:29 10° NNW 17:51:48 72° ENE 17:57:03 10° SSE
Starlink Z 4.3 17:49:11 10° W 17:51:50 31° SSW 17:53:04 21° SSE
Starlink AK 4.3 17:49:25 10° W 17:52:04 30° SSW 17:53:17 22° SSE
Starlink AL 4.3 17:49:38 10° W 17:52:17 30° SSW 17:53:31 22° SSE
Starlink AQ 4.3 17:49:51 10° W 17:52:30 30° SSW 17:53:43 22° SSE
Starlink AD 4.3 17:49:52 10° W 17:52:31 30° SSW 17:53:43 22° SSE
Starlink Y 4.3 17:50:19 10° W 17:52:57 30° SSW 17:54:09 22° SSE
Starlink AG 4.3 17:50:33 10° W 17:53:11 30° SSW 17:54:23 22° SSE
Starlink W 4.3 17:50:44 10° W 17:53:24 30° SSW 17:54:37 22° SSE
Starlink AJ 4.3 17:51:00 10° W 17:53:38 30° SSW 17:54:48 22° SSE
Starlink AM 4.4 17:51:27 10° W 17:54:05 30° SSW 17:55:14 22° SSE
Starlink AP 4.4 17:51:41 10° W 17:54:18 30° SSW 17:55:27 22° SSE
Starlink AA 4.4 17:51:54 10° W 17:54:31 30° SSW 17:55:40 22° SSE
Cosmos 2056 Rocket 4.2 17:49:54 10° SSE 17:54:36 33° ESE 17:55:37 31° E
Starlink AF 4.4 17:52:08 10° W 17:54:45 30° SSW 17:55:53 22° SSE
Starlink AB 4.4 17:52:20 10° W 17:54:58 29° SSW 17:56:06 22° SSE
Starlink AN 4.4 17:52:35 10° W 17:55:12 29° SSW 17:56:19 22° SSE
CZ-2D R/B 3.4 17:58:27 10° S 18:02:17 74° WSW 18:06:12 10° NNW
Cosmos 1140 Rocket 3.4 17:58:14 10° NNW 18:03:33 84° ENE 18:08:47 10° SSE
MOS 1 4.4 18:00:48 11° SE 18:06:10 54° ENE 18:11:43 10° N
COSMO-SKYMED 1 3.0 18:02:04 10° N 18:06:23 65° WNW 18:10:41 10° SSW
Cosmos 1869 3.2 18:03:30 10° N 18:07:31 89° ENE 18:11:29 10° S
CZ-2C R/B 3.7 18:06:48 34° E 18:08:17 40° ENE 18:13:38 10° N
IRS-1A Rocket 4.2 18:02:53 10° SSE 18:08:32 67° ENE 18:14:05 10° NNW
ARGOS 3.5 18:08:17 36° E 18:09:41 43° ENE 18:14:47 10° N
Cosmos 44 4.0 18:06:56 10° WSW 18:11:10 41° NW 18:13:17 25° NNE
Cosmos 2227 4.2 18:06:36 10° SSW 18:12:15 64° ESE 18:15:05 30° NE
Cosmos 2082 4.5 18:07:36 10° SW 18:13:05 50° NW 18:17:57 13° NNE
Cosmos 2297 Rocket 3.6 18:11:19 10° WSW 18:16:27 34° NW 18:21:20 11° NNE
USA 116 3.4 18:18:07 64° SW 18:18:07 64° SW 18:20:50 10° SSW
DMSP B5D1-3 4.4 18:13:11 10° NNE 18:18:19 73° ESE 18:23:25 10° S
Cosmos 2263 Rocket 2.2 18:13:18 10° S 18:18:44 56° ESE 18:20:23 41° ENE
Cosmos 1850 Rocket 4.3 18:14:07 10° NNW 18:19:10 42° NE 18:19:21 42° ENE
Cosmos 1821 Rocket 3.9 18:14:53 10° S 18:21:14 84° E 18:27:32 10° NNE
ISS -3.3 18:17:57 10° W 18:21:03 57° SSW 18:21:03 57° SSW
ATLAS 3B R/B 4.4 18:18:33 10° SSE 18:19:51 14° SE 18:19:51 14° SE
SJ-11-01 4.1 18:20:25 19° SSE 18:23:52 78° ENE 18:28:36 10° NNW
Cosmos 1939 Rocket 4.0 18:20:29 10° S 18:24:18 45° W 18:28:13 10° NNW
USA 267 3.2 18:22:00 35° ENE 18:25:04 88° SSE 18:31:39 10° WSW
Cosmos 2221 3.9 18:23:47 10° NNW 18:27:47 39° W 18:31:48 10° SSW
Cosmos 2227 Rocket 3.7 18:25:21 10° WSW 18:30:21 31° NW 18:34:46 13° NNE
Cosmos 1741 Rocket 4.2 18:26:16 10° NNW 18:31:16 49° NE 18:31:16 49° NE
HJ-1C 4.0 18:32:54 55° WNW 18:32:54 55° WNW 18:35:54 10° NNW
Cosmos 1605 Rocket 4.1 18:26:41 10° SSE 18:32:45 49° E 18:38:53 10° NNE
NOSS 3-2 (C) 4.2 18:28:21 10° S 18:32:21 32° SE 18:32:21 32° SE
Cosmos 1833 Rocket 4.1 18:29:39 10° NNW 18:33:45 23° NNE 18:33:45 23° NNE
H-2A R/B 1.9 18:33:08 53° SE 18:34:14 69° ENE 18:39:27 10° NNW
Cosmos 1954 Rocket 4.0 18:29:08 10° NNW 18:34:29 80° WSW 18:37:31 26° SSE
Cosmos 1076 Rocket 3.5 18:32:09 10° SSW 18:36:29 83° W 18:37:45 46° N
CENTAUR R/B 3.7 18:32:03 10° S 18:35:03 25° SSE 18:35:03 25° SSE
SL-24 R/B 4.4 18:38:01 47° SSE 18:39:32 79° ENE 18:45:09 10° NNW
Cosmos 1943 4.4 18:36:35 10° NW 18:41:51 41° WSW 18:47:06 10° S
Cosmos 1818 4.0 18:37:42 10° NW 18:42:54 46° NNE 18:42:54 46° NNE
Cosmos 2123 Rocket 4.1 18:38:16 10° NNW 18:44:36 77° W 18:50:51 10° S
Cosmos 1934 Rocket 3.8 18:42:54 10° S 18:48:58 86° E 18:55:04 10° NNE
NOSS 3-2 (A) 3.4 18:43:30 10° SSW 18:49:16 60° SE 18:49:29 59° ESE
Cosmos 2058 3.5 18:45:28 10° SSW 18:48:43 52° SW 18:48:43 52° SW
Cosmos 1371 Rocket 3.9 18:48:23 10° SSW 18:53:36 84° WNW 18:54:20 66° NNE
ERBS 4.5 18:50:51 10° WNW 18:52:26 24° WNW 18:52:26 24° WNW
Meteor 2-20 4.3 18:49:19 10° N 18:55:27 81° ENE 18:57:01 52° SSE
ADEOS Rocket 3.4 18:55:13 10° NNE 19:02:00 81° WNW 19:09:26 10° SSW
SPOT 3 Rocket 3.7 19:05:57 62° N 19:05:57 62° N 19:10:15 10° NNW
Cosmos 44 Rocket 3.7 19:01:55 10° WSW 19:06:24 56° NW 19:06:24 56° NW
ATLAS 5 CENTAUR R/B 3.0 19:03:45 10° NW 19:07:51 38° N 19:07:51 38° N
Ariane Rocket 4.2 19:06:27 10° SSW 19:11:15 41° W 19:16:04 10° NNW
Meteor 2-20 Rocket 4.3 19:05:16 10° N 19:10:57 75° NNE 19:10:57 75° NNE
Resurs 01 Rocket 4.1 19:16:47 14° N 19:16:47 14° N 19:17:23 10° N
Cosmos 2082 Rocket 3.8 19:13:51 10° NNW 19:16:48 23° N 19:16:48 23° N
Cosmos 1624 Rocket 4.4 19:14:50 10° SW 19:19:50 62° WNW 19:19:50 62° WNW
USA 238 DEB 3.6 19:24:31 10° SW 19:31:14 85° NW 19:31:14 85° NW
USA 238 3.6 19:24:38 10° SW 19:31:17 85° WNW 19:31:17 85° WNW
COSMOS 2406 4.2 19:27:48 10° NNW 19:31:18 37° NNW 19:31:18 37° NNW
Cosmos 2056 Rocket 4.3 19:31:24 10° SW 19:36:02 49° WNW 19:36:02 49° WNW
CZ-2C R/B 4.1 19:47:50 45° WSW 19:48:05 45° W 19:53:38 10° NNW
ARGOS 4.3 19:49:47 39° WSW 19:50:01 39° W 19:55:06 10° NNW
Cosmos 2263 Rocket 3.5 19:57:45 10° WSW 20:02:08 36° WNW 20:02:08 36° WNW
USA 267 3.8 20:09:21 55° WNW 20:09:21 55° WNW 20:14:31 10° W
H-2A R/B 4.1 20:13:45 22° W 20:14:12 22° W 20:18:15 10° NW
